Starlink 33742

operational
NORAD ID: 63366 Int'l Des: 2025-063 Owner: SPXS Country: US Constellation: starlink
LEOCIRCULAR

Starlink 33742について

説明を読み込み中...

リアルタイム位置

3D地球を読み込み中...

次回通過

高度履歴

Altitude vs Time

uPlot chart will show altitude changes over time

軌道要素

1 63366U 25063D 25304.24996649 .00032367 00000-0 11000-2 0 9998
2 63366 53.1595 293.5586 0001350 96.5848 263.5307 15.30204690 34891
Epoch: Oct 31, 2025 • Age: 18 hours

現在のステータス

高度 483.0 km
速度 7.62 km/s
衛星直下点 -25.73°S, 88.03°E
打ち上げ日 Mar 26, 2025
運用期間 0.5 years
タイプ internet

技術仕様

分類 Payload
質量 575.00 kg
乾燥質量 530.00 kg
総質量 575.00 kg
長さ 0.30 m
直径 4.10 m
スパン 29.00 m
形状 Box + pan
製造者 SPXS
バスタイプ Starlink V2MO
フェーズステータス In Orbit
所有者/国 SPXS/US

大規模コンステレーション

Loading constellations...